Change the Weather History Date:

Thursday, January 31, 2013

  Actual Average (KBFD) Record (KBFD)
Temperature  
Mean Temperature 35 °F 22 °F  
Max Temperature 53 °F 30 °F 54 °F (1988)
Min Temperature 17 °F 14 °F -13 °F (2010)
Degree Days  
Heating Degree Days 30 38  
Month to date heating degree days 1178  
Since 1 July heating degree days 4411  
Cooling Degree Days 0 0  
Month to date cooling degree days 0  
Year to date cooling degree days 0  
Moisture  
Dew Point 19 °F    
Average Humidity 73    
Maximum Humidity 89    
Minimum Humidity 54    
Precipitation  
Precipitation 0.57 in 0.10 in 0.84 in (1982)
Month to date precipitation 3.29  
Year to date precipitation 3.29  
Sea Level Pressure  
Sea Level Pressure 29.37 in    
Wind  
Wind Speed 18 mph (West)    
Max Wind Speed 31 mph    
Max Gust Speed 47 mph    
Visibility 3 miles    
Events Rain , Snow    
T = Trace of Precipitation, MM = Missing Value Source: NWS Daily Summary

Daily Weather History Graph

Daily Weather History Graph

Search for Another Location

Airport or City:

Trip Planner

Search our weather history database for the weather conditions in past years. The results will help you decide how hot, cold, wet, or windy it might be!

Date:

Astronomy

Jan. 31, 2013 Rise Set
Actual Time 7:25 AM EST 5:25 PM EST
Civil Twilight 6:56 AM EST 5:55 PM EST
Nautical Twilight 6:22 AM EST 6:28 PM EST
Astronomical Twilight 5:49 AM EST 7:01 PM EST
Moon 10:32 PM EST (1/31) 9:18 AM EST (1/31)
Length of Visible Light 10h 59m
Length of Day
9h 59m
Waning Gibbous, 80% of the Moon is Illuminated
Jan 31
Waning Gibbous
Feb 3
Last Quarter
Feb 10
New
Feb 17
First Quarter
Feb 25
Full

Hourly Weather History & Observations

Time (EST) Temp. Windchill Dew Point Humidity Pressure Visibility Wind Dir Wind Speed Gust Speed Precip Events Conditions
12:07 AM 53.6 °F - 48.2 °F 82% 29.11 in 2.5 mi SW 11.5 mph 17.3 mph 0.06 in Rain Heavy Rain
12:12 AM 51.8 °F - 48.2 °F 88% 29.11 in 1.8 mi SW 12.7 mph 20.7 mph 0.11 in Rain Heavy Rain
12:20 AM 51.8 °F - 48.2 °F 88% 29.11 in 3.0 mi SW 15.0 mph 21.9 mph 0.15 in Rain Heavy Rain
12:56 AM 48.9 °F - 43.0 °F 80% 29.10 in 5.0 mi WSW 18.4 mph 35.7 mph 0.31 in Rain Rain
1:09 AM 48.2 °F - 42.8 °F 82% 29.11 in 8.0 mi SW 16.1 mph 26.5 mph 0.02 in Rain Rain
1:44 AM 46.4 °F 37.7 °F 39.2 °F 76% 29.12 in 5.0 mi SW 26.5 mph 40.3 mph 0.09 in Rain Heavy Rain
1:56 AM 45.0 °F 37.9 °F 39.0 °F 80% 29.09 in 5.0 mi SW 16.1 mph 43.7 mph 0.13 in Rain Light Rain
2:05 AM 44.6 °F 38.1 °F 39.2 °F 81% 29.08 in 10.0 mi SW 13.8 mph 24.2 mph 0.00 in Rain Light Rain
2:29 AM 37.4 °F 25.4 °F 33.8 °F 87% 29.14 in 6.0 mi West 27.6 mph 38.0 mph 0.02 in Rain Rain
2:56 AM 36.0 °F 26.3 °F 32.0 °F 86% 29.14 in 5.0 mi West 16.1 mph 31.1 mph 0.04 in Snow Light Snow
3:44 AM 35.6 °F 26.2 °F 30.2 °F 81% 29.13 in 2.0 mi West 15.0 mph 21.9 mph 0.01 in Snow Light Snow
3:46 AM 33.8 °F 24.3 °F 30.2 °F 87% 29.13 in 1.8 mi West 13.8 mph 21.9 mph 0.02 in Snow Light Snow
3:56 AM 34.0 °F 26.6 °F 30.9 °F 89% 29.16 in 0.8 mi West 9.2 mph - 0.03 in Snow Light Snow
4:12 AM 33.8 °F 21.9 °F 30.2 °F 87% 29.13 in 0.8 mi West 21.9 mph 33.4 mph 0.03 in Snow Light Snow
4:23 AM 33.8 °F 22.5 °F 28.4 °F 81% 29.14 in 0.8 mi West 19.6 mph 36.8 mph 0.04 in Snow Light Snow
4:30 AM 33.8 °F 22.5 °F 28.4 °F 81% 29.15 in 2.0 mi West 19.6 mph 35.7 mph 0.04 in Snow Light Snow
4:37 AM 33.8 °F 24.8 °F 28.4 °F 81% 29.16 in 1.5 mi West 12.7 mph 35.7 mph 0.04 in Snow Light Snow
4:43 AM 33.8 °F 22.8 °F 28.4 °F 81% 29.16 in 3.0 mi West 18.4 mph 27.6 mph 0.04 in Snow Light Snow
4:56 AM 33.1 °F 22.2 °F 27.0 °F 78% 29.18 in 9.0 mi West 17.3 mph 31.1 mph 0.04 in   Overcast
5:02 AM 32.0 °F 23.0 °F 28.4 °F 87% 29.16 in 1.5 mi West 11.5 mph 27.6 mph 0.00 in Snow Light Snow
5:04 AM 32.0 °F 21.6 °F 28.4 °F 87% 29.16 in 1.0 mi West 15.0 mph 24.2 mph 0.00 in Snow Light Snow
5:11 AM 32.0 °F 20.8 °F 28.4 °F 87% 29.17 in 0.8 mi West 17.3 mph 26.5 mph 0.00 in Snow Light Snow
5:19 AM 32.0 °F 18.4 °F 26.6 °F 80% 29.18 in 1.5 mi West 26.5 mph 40.3 mph 0.00 in Snow Light Snow
5:24 AM 30.2 °F 16.5 °F 26.6 °F 86% 29.19 in 2.5 mi West 24.2 mph 40.3 mph 0.00 in Snow Light Snow
5:32 AM 30.2 °F 15.7 °F 26.6 °F 86% 29.20 in 3.0 mi West 27.6 mph 38.0 mph 0.00 in Snow Light Snow
5:43 AM 30.2 °F 15.2 °F 23.0 °F 75% 29.20 in 9.0 mi West 29.9 mph 47.2 mph 0.00 in   Overcast
5:56 AM 30.0 °F 15.7 °F 19.9 °F 66% 29.24 in 10.0 mi West 26.5 mph 47.2 mph 0.00 in   Overcast
6:43 AM 28.4 °F 12.5 °F 19.4 °F 69% 29.26 in 1.8 mi West 31.1 mph 42.6 mph 0.00 in Snow Light Snow
6:48 AM 26.6 °F 11.7 °F 19.4 °F 74% 29.27 in 0.5 mi West 24.2 mph 43.7 mph 0.00 in Snow Snow
6:56 AM 26.1 °F 10.7 °F 21.0 °F 81% 29.31 in 0.5 mi West 25.3 mph 35.7 mph 0.00 in Snow Snow
7:01 AM 26.6 °F 11.4 °F 21.2 °F 80% 29.28 in 1.2 mi West 25.3 mph 35.7 mph 0.00 in Snow Light Snow
7:05 AM 26.6 °F 13.4 °F 19.4 °F 74% 29.28 in 3.0 mi West 18.4 mph 31.1 mph 0.00 in Snow Light Snow
7:11 AM 26.6 °F 13.1 °F 21.2 °F 80% 29.29 in 1.5 mi West 19.6 mph 31.1 mph 0.00 in Snow Light Snow
7:20 AM 26.6 °F 13.1 °F 21.2 °F 80% 29.30 in 0.5 mi West 19.6 mph 31.1 mph 0.01 in Snow Snow
7:33 AM 26.6 °F 13.1 °F 19.4 °F 74% 29.30 in 2.0 mi West 19.6 mph 46.0 mph 0.01 in Snow Light Snow
7:39 AM 26.6 °F 13.8 °F 17.6 °F 69% 29.30 in 5.0 mi WSW 17.3 mph 36.8 mph 0.01 in Snow Light Snow
7:52 AM 26.6 °F 14.3 °F 17.6 °F 69% 29.30 in 3.0 mi West 16.1 mph 36.8 mph 0.01 in Snow Light Snow
7:56 AM 27.0 °F 12.8 °F 18.0 °F 69% 29.34 in 2.5 mi West 21.9 mph 36.8 mph 0.01 in Snow Light Snow
8:02 AM 26.6 °F 13.8 °F 19.4 °F 74% 29.31 in 0.8 mi West 17.3 mph 32.2 mph 0.00 in Snow Light Snow
8:11 AM 26.6 °F 12.4 °F 19.4 °F 74% 29.31 in 0.5 mi West 21.9 mph 31.1 mph 0.00 in Snow Snow
8:18 AM 26.6 °F 12.4 °F 19.4 °F 74% 29.32 in 1.0 mi West 21.9 mph 29.9 mph 0.00 in Snow Light Snow
8:28 AM 26.6 °F 12.4 °F 19.4 °F 74% 29.32 in 3.0 mi West 21.9 mph 39.1 mph 0.00 in Snow Light Snow
8:41 AM 26.6 °F 12.0 °F 17.6 °F 69% 29.32 in 10.0 mi West 23.0 mph 34.5 mph 0.00 in   Overcast
8:56 AM 27.0 °F 16.1 °F 17.1 °F 66% 29.36 in 10.0 mi West 12.7 mph 35.7 mph 0.00 in   Overcast
9:07 AM 26.6 °F 10.8 °F 17.6 °F 69% 29.33 in 1.8 mi West 27.6 mph 43.7 mph 0.00 in Snow Light Snow
9:39 AM 24.8 °F 11.1 °F 19.4 °F 80% 29.36 in 0.5 mi WNW 18.4 mph 29.9 mph 0.00 in Snow Snow
9:48 AM 24.8 °F 9.0 °F 19.4 °F 80% 29.36 in 0.2 mi West 25.3 mph 33.4 mph 0.00 in Snow Heavy Snow
9:54 AM 24.8 °F 9.6 °F 19.4 °F 80% 29.36 in 0.2 mi West 23.0 mph 33.4 mph 0.00 in Snow Heavy Snow
9:56 AM 25.0 °F 9.5 °F 19.0 °F 78% 29.40 in 0.2 mi West 24.2 mph 33.4 mph 0.00 in Snow Heavy Snow
10:00 AM 24.8 °F 9.3 °F 17.6 °F 74% 29.36 in 0.8 mi West 24.2 mph 33.4 mph 0.00 in Snow Light Snow
10:07 AM 26.6 °F 13.1 °F 17.6 °F 69% 29.36 in 2.0 mi West 19.6 mph 39.1 mph 0.00 in Snow Light Snow
10:13 AM 24.8 °F 10.0 °F 17.6 °F 74% 29.36 in 0.8 mi West 21.9 mph 35.7 mph 0.00 in Snow Light Snow
10:22 AM 24.8 °F 10.7 °F 19.4 °F 80% 29.37 in 0.5 mi West 19.6 mph 32.2 mph 0.00 in Snow Snow
10:33 AM 24.8 °F 10.3 °F 19.4 °F 80% 29.38 in 0.2 mi West 20.7 mph 32.2 mph 0.01 in Snow Heavy Snow
10:53 AM 24.8 °F 10.3 °F 17.6 °F 74% 29.37 in 1.0 mi West 20.7 mph 39.1 mph 0.01 in Snow Light Snow
10:56 AM 25.0 °F 8.6 °F 16.0 °F 69% 29.41 in 1.5 mi West 27.6 mph 41.4 mph 0.01 in Snow Light Snow
11:03 AM 24.8 °F 9.6 °F 14.0 °F 64% 29.38 in 1.2 mi West 23.0 mph 41.4 mph 0.00 in   Mostly Cloudy
11:06 AM 24.8 °F 7.6 °F 12.2 °F 59% 29.38 in 2.5 mi West 31.1 mph 44.9 mph 0.00 in   Mostly Cloudy
11:13 AM 26.6 °F 10.0 °F 12.2 °F 55% 29.38 in 3.0 mi West 31.1 mph 44.9 mph 0.00 in Snow Blowing Snow
11:25 AM 24.8 °F 7.6 °F 12.2 °F 59% 29.38 in 1.8 mi West 31.1 mph 41.4 mph 0.00 in Snow Blowing Snow
11:35 AM 24.8 °F 10.0 °F 12.2 °F 59% 29.39 in 3.0 mi West 21.9 mph 40.3 mph 0.00 in   Mostly Cloudy
11:56 AM 25.0 °F 10.6 °F 10.9 °F 55% 29.44 in 10.0 mi West 20.7 mph 31.1 mph 0.00 in   Mostly Cloudy
12:14 PM 24.8 °F 11.5 °F 10.4 °F 54% 29.41 in 2.0 mi West 17.3 mph 44.9 mph 0.00 in Snow Light Snow
12:22 PM 24.8 °F 11.5 °F 10.4 °F 54% 29.42 in 10.0 mi West 17.3 mph 28.8 mph 0.00 in   Overcast
12:38 PM 23.0 °F 5.4 °F 12.2 °F 63% 29.42 in 1.8 mi West 29.9 mph 46.0 mph 0.00 in Snow Light Snow
12:49 PM 24.8 °F 10.7 °F 10.4 °F 54% 29.43 in 3.0 mi West 19.6 mph 33.4 mph 0.00 in   Overcast
12:56 PM 24.1 °F 11.5 °F 10.9 °F 57% 29.47 in 8.0 mi WSW 15.0 mph 33.4 mph 0.00 in   Overcast
1:56 PM 23.0 °F 8.7 °F 10.0 °F 58% 29.50 in 5.0 mi West 18.4 mph 31.1 mph 0.00 in Snow Light Snow
1:59 PM 23.0 °F 8.0 °F 12.2 °F 63% 29.45 in 1.5 mi WSW 20.7 mph 31.1 mph 0.00 in Snow Light Snow
2:05 PM 21.2 °F 5.2 °F 14.0 °F 74% 29.45 in 0.8 mi West 21.9 mph 39.1 mph 0.00 in Snow Light Snow
2:11 PM 23.0 °F 8.0 °F 10.4 °F 59% 29.46 in 2.5 mi West 20.7 mph 39.1 mph 0.00 in Snow Light Snow
2:14 PM 23.0 °F 10.1 °F 10.4 °F 59% 29.46 in 5.0 mi WSW 15.0 mph 39.1 mph 0.00 in Snow Light Snow
2:17 PM 21.2 °F 4.5 °F 12.2 °F 68% 29.46 in 1.5 mi West 24.2 mph 34.5 mph 0.00 in Snow Light Snow
2:30 PM 23.0 °F 8.7 °F 12.2 °F 63% 29.46 in 3.0 mi West 18.4 mph 35.7 mph 0.00 in Snow Light Snow
2:41 PM 21.2 °F 7.8 °F 12.2 °F 68% 29.47 in 2.5 mi West 15.0 mph 29.9 mph 0.00 in Snow Light Snow
2:48 PM 21.2 °F 5.6 °F 12.2 °F 68% 29.47 in 1.2 mi West 20.7 mph 32.2 mph 0.00 in Snow Light Snow
2:54 PM 21.2 °F 7.3 °F 12.2 °F 68% 29.47 in 3.0 mi WSW 16.1 mph 29.9 mph 0.00 in Snow Light Snow
3:12 PM 21.2 °F 7.3 °F 12.2 °F 68% 29.49 in 1.8 mi West 16.1 mph 27.6 mph 0.00 in Snow Light Snow
3:34 PM 21.2 °F 6.0 °F 15.8 °F 80% 29.50 in 0.5 mi West 19.6 mph 27.6 mph 0.00 in Snow Snow
3:47 PM 21.2 °F 6.4 °F 14.0 °F 74% 29.51 in 1.2 mi West 18.4 mph 28.8 mph 0.00 in Snow Light Snow
3:56 PM 21.0 °F 7.1 °F 12.0 °F 68% 29.58 in 4.0 mi West 16.1 mph 29.9 mph 0.00 in Snow Light Snow
4:18 PM 21.2 °F 7.8 °F 10.4 °F 63% 29.52 in 2.0 mi West 15.0 mph 36.8 mph 0.00 in Snow Light Snow
4:26 PM 21.2 °F 7.8 °F 10.4 °F 63% 29.53 in 9.0 mi West 15.0 mph 29.9 mph 0.00 in   Overcast
4:41 PM 19.4 °F 4.5 °F 12.2 °F 74% 29.53 in 1.8 mi West 17.3 mph 28.8 mph 0.00 in Snow Light Snow
4:46 PM 19.4 °F 2.1 °F 12.2 °F 74% 29.54 in 2.0 mi West 24.2 mph 32.2 mph 0.00 in Snow Light Snow
4:49 PM 19.4 °F 4.5 °F 10.4 °F 68% 29.54 in 3.0 mi West 17.3 mph 32.2 mph 0.00 in Snow Light Snow
4:56 PM 19.9 °F 6.7 °F 10.0 °F 65% 29.62 in 4.0 mi West 13.8 mph 36.8 mph 0.00 in Snow Light Snow
5:56 PM 19.9 °F 6.2 °F 9.0 °F 62% 29.65 in 10.0 mi West 15.0 mph 23.0 mph 0.00 in   Overcast
6:11 PM 19.4 °F 4.5 °F 10.4 °F 68% 29.58 in 2.5 mi WSW 17.3 mph 31.1 mph 0.00 in Snow Light Snow
6:17 PM 19.4 °F 5.5 °F 10.4 °F 68% 29.58 in 3.0 mi West 15.0 mph 31.1 mph 0.00 in Snow Light Snow
6:26 PM 19.4 °F 5.0 °F 10.4 °F 68% 29.59 in 2.5 mi WSW 16.1 mph 23.0 mph 0.00 in Snow Light Snow
6:34 PM 17.6 °F 3.7 °F 12.2 °F 79% 29.59 in 1.2 mi West 13.8 mph 25.3 mph 0.00 in Snow Light Snow
6:41 PM 19.4 °F 4.5 °F 10.4 °F 68% 29.59 in 4.0 mi WSW 17.3 mph 29.9 mph 0.00 in Snow Light Snow
6:56 PM 18.0 °F 6.1 °F 10.9 °F 74% 29.69 in 3.0 mi WSW 10.4 mph 24.2 mph 0.00 in Snow Light Snow
7:39 PM 17.6 °F 1.7 °F 8.6 °F 68% 29.60 in 9.0 mi West 18.4 mph 26.5 mph 0.00 in Snow Light Snow
7:56 PM 18.0 °F 3.6 °F 8.1 °F 65% 29.69 in 8.0 mi West 15.0 mph 24.2 mph 0.00 in Snow Light Snow
9:29 PM 17.6 °F 3.2 °F 10.4 °F 73% 29.61 in 2.0 mi WSW 15.0 mph 19.6 mph 0.00 in Snow Light Snow
9:43 PM 17.6 °F 5.7 °F 12.2 °F 79% 29.62 in 1.8 mi WSW 10.4 mph 20.7 mph 0.00 in Snow Light Snow
9:56 PM 18.0 °F 4.2 °F 12.0 °F 78% 29.71 in 1.8 mi WSW 13.8 mph 21.9 mph 0.00 in Snow Light Snow
10:06 PM 17.6 °F 4.3 °F 10.4 °F 73% 29.62 in 2.5 mi West 12.7 mph 23.0 mph 0.00 in Snow Light Snow
10:23 PM 17.6 °F 5.0 °F 12.2 °F 79% 29.62 in 1.8 mi WSW 11.5 mph 20.7 mph 0.00 in Snow Light Snow
10:29 PM 17.6 °F 3.2 °F 10.4 °F 73% 29.62 in 3.0 mi West 15.0 mph 20.7 mph 0.00 in Snow Light Snow
10:56 PM 18.0 °F 3.1 °F 9.0 °F 68% 29.70 in 10.0 mi West 16.1 mph 26.5 mph 0.00 in   Mostly Cloudy
11:56 PM 18.0 °F 4.2 °F 7.0 °F 62% 29.72 in 10.0 mi West 13.8 mph 20.7 mph 0.00 in   Mostly Cloudy